Year,Month,Day,Hour,Minute,Value (Times are PST for temperature in C)
2013,05,03,00,00,9.10
2013,05,03,00,01,9.00
2013,05,03,00,02,8.90
2013,05,03,00,03,8.90
2013,05,03,00,04,8.80
2013,05,03,00,05,8.80
2013,05,03,00,06,8.70
2013,05,03,00,07,8.70
2013,05,03,00,08,8.70
2013,05,03,00,09,8.60
2013,05,03,00,10,8.60
2013,05,03,00,11,8.60
2013,05,03,00,12,8.60
2013,05,03,00,13,8.50
2013,05,03,00,14,8.50
2013,05,03,00,15,8.40
2013,05,03,00,16,8.40
2013,05,03,00,17,8.40
2013,05,03,00,18,8.40
2013,05,03,00,19,8.30
2013,05,03,00,20,8.30
2013,05,03,00,21,8.30
2013,05,03,00,22,8.30
2013,05,03,00,23,8.30
2013,05,03,00,24,8.30
2013,05,03,00,25,8.40
2013,05,03,00,26,8.40
2013,05,03,00,27,8.40
2013,05,03,00,28,8.40
2013,05,03,00,29,8.40
2013,05,03,00,30,8.50
2013,05,03,00,31,8.50
2013,05,03,00,32,8.50
2013,05,03,00,33,8.60
2013,05,03,00,34,8.70
2013,05,03,00,35,8.70
2013,05,03,00,36,8.70
2013,05,03,00,37,8.80
2013,05,03,00,38,8.70
2013,05,03,00,39,8.70
2013,05,03,00,40,8.60
2013,05,03,00,41,8.60
2013,05,03,00,42,8.50
2013,05,03,00,43,8.50
2013,05,03,00,44,8.40
2013,05,03,00,45,8.40
2013,05,03,00,46,8.40
2013,05,03,00,47,8.40
2013,05,03,00,48,8.30
2013,05,03,00,49,8.30
2013,05,03,00,50,8.30
2013,05,03,00,51,8.20
2013,05,03,00,52,8.20
2013,05,03,00,53,8.20
2013,05,03,00,54,8.10
2013,05,03,00,55,8.10
2013,05,03,00,56,8.10
2013,05,03,00,57,8.10
2013,05,03,00,58,8.10
2013,05,03,00,59,8.10
2013,05,03,01,00,8.10
2013,05,03,01,01,8.10
2013,05,03,01,02,8.10
2013,05,03,01,03,8.00
2013,05,03,01,04,8.00
2013,05,03,01,05,7.90
2013,05,03,01,06,7.90
2013,05,03,01,07,7.90
2013,05,03,01,08,7.90
2013,05,03,01,09,8.00
2013,05,03,01,10,8.00
2013,05,03,01,11,8.00
2013,05,03,01,12,8.00
2013,05,03,01,13,8.00
2013,05,03,01,14,8.00
2013,05,03,01,15,8.00
2013,05,03,01,16,7.90
2013,05,03,01,17,7.90
2013,05,03,01,18,7.90
2013,05,03,01,19,7.90
2013,05,03,01,20,7.90
2013,05,03,01,21,7.90
2013,05,03,01,22,7.90
2013,05,03,01,23,7.80
2013,05,03,01,24,7.80
2013,05,03,01,25,7.80
2013,05,03,01,26,7.80
2013,05,03,01,27,7.80
2013,05,03,01,28,7.70
2013,05,03,01,29,7.70
2013,05,03,01,30,7.70
2013,05,03,01,31,7.70
2013,05,03,01,32,7.70
2013,05,03,01,33,7.70
2013,05,03,01,34,7.70
2013,05,03,01,35,7.70
2013,05,03,01,36,7.60
2013,05,03,01,37,7.60
2013,05,03,01,38,7.60
2013,05,03,01,39,7.60
2013,05,03,01,40,7.60
2013,05,03,01,41,7.60
2013,05,03,01,42,7.60
2013,05,03,01,43,7.60
2013,05,03,01,44,7.50
2013,05,03,01,45,7.50
2013,05,03,01,46,7.50
2013,05,03,01,47,7.50
2013,05,03,01,48,7.40
2013,05,03,01,49,7.40
2013,05,03,01,50,7.40
2013,05,03,01,51,7.40
2013,05,03,01,52,7.30
2013,05,03,01,53,7.30
2013,05,03,01,54,7.30
2013,05,03,01,55,7.20
2013,05,03,01,56,7.20
2013,05,03,01,57,7.20
2013,05,03,01,58,7.10
2013,05,03,01,59,7.10
2013,05,03,02,00,7.10
2013,05,03,02,01,7.10
2013,05,03,02,02,7.10
2013,05,03,02,03,7.20
2013,05,03,02,04,7.20
2013,05,03,02,05,7.20
2013,05,03,02,06,7.20
2013,05,03,02,07,7.20
2013,05,03,02,08,7.20
2013,05,03,02,09,7.20
2013,05,03,02,10,7.20
2013,05,03,02,11,7.20
2013,05,03,02,12,7.10
2013,05,03,02,13,7.10
2013,05,03,02,14,7.10
2013,05,03,02,15,7.00
2013,05,03,02,16,7.00
2013,05,03,02,17,7.00
2013,05,03,02,18,7.00
2013,05,03,02,19,7.00
2013,05,03,02,20,7.00
2013,05,03,02,21,7.10
2013,05,03,02,22,7.10
2013,05,03,02,23,7.10
2013,05,03,02,24,7.10
2013,05,03,02,25,7.00
2013,05,03,02,26,7.00
2013,05,03,02,27,7.00
2013,05,03,02,28,7.00
2013,05,03,02,29,7.00
2013,05,03,02,30,6.90
2013,05,03,02,31,6.90
2013,05,03,02,32,6.90
2013,05,03,02,33,6.90
2013,05,03,02,34,6.90
2013,05,03,02,35,6.90
2013,05,03,02,36,6.90
2013,05,03,02,37,6.90
2013,05,03,02,38,6.90
2013,05,03,02,39,6.90
2013,05,03,02,40,6.90
2013,05,03,02,41,6.90
2013,05,03,02,42,6.90
2013,05,03,02,43,6.90
2013,05,03,02,44,6.90
2013,05,03,02,45,6.90
2013,05,03,02,46,6.90
2013,05,03,02,47,6.90
2013,05,03,02,48,6.90
2013,05,03,02,49,6.80
2013,05,03,02,50,6.80
2013,05,03,02,51,6.80
2013,05,03,02,52,6.80
2013,05,03,02,53,6.80
2013,05,03,02,54,6.80
2013,05,03,02,55,6.80
2013,05,03,02,56,6.80
2013,05,03,02,57,6.80
2013,05,03,02,58,6.80
2013,05,03,02,59,6.70
2013,05,03,03,00,6.70
2013,05,03,03,01,6.70
2013,05,03,03,02,6.70
2013,05,03,03,03,6.60
2013,05,03,03,04,6.60
2013,05,03,03,05,6.60
2013,05,03,03,06,6.60
2013,05,03,03,07,6.60
2013,05,03,03,08,6.60
2013,05,03,03,09,6.60
2013,05,03,03,10,6.50
2013,05,03,03,11,6.50
2013,05,03,03,12,6.50
2013,05,03,03,13,6.50
2013,05,03,03,14,6.40
2013,05,03,03,15,6.40
2013,05,03,03,16,6.40
2013,05,03,03,17,6.40
2013,05,03,03,18,6.40
2013,05,03,03,19,6.40
2013,05,03,03,20,6.40
2013,05,03,03,21,6.40
2013,05,03,03,22,6.40
2013,05,03,03,23,6.30
2013,05,03,03,24,6.30
2013,05,03,03,25,6.30
2013,05,03,03,26,6.30
2013,05,03,03,27,6.30
2013,05,03,03,28,6.30
2013,05,03,03,29,6.30
2013,05,03,03,30,6.30
2013,05,03,03,31,6.30
2013,05,03,03,32,6.30
2013,05,03,03,33,6.30
2013,05,03,03,34,6.30
2013,05,03,03,35,6.20
2013,05,03,03,36,6.20
2013,05,03,03,37,6.20
2013,05,03,03,38,6.20
2013,05,03,03,39,6.20
2013,05,03,03,40,6.20
2013,05,03,03,41,6.20
2013,05,03,03,42,6.20
2013,05,03,03,43,6.20
2013,05,03,03,44,6.20
2013,05,03,03,45,6.20
2013,05,03,03,46,6.20
2013,05,03,03,47,6.20
2013,05,03,03,48,6.20
2013,05,03,03,49,6.20
2013,05,03,03,50,6.20
2013,05,03,03,51,6.30
2013,05,03,03,52,6.30
2013,05,03,03,53,6.30
2013,05,03,03,54,6.30
2013,05,03,03,55,6.30
2013,05,03,03,56,6.40
2013,05,03,03,57,6.40
2013,05,03,03,58,6.40
2013,05,03,03,59,6.50
2013,05,03,04,00,6.50
2013,05,03,04,01,6.50
2013,05,03,04,02,6.50
2013,05,03,04,03,6.50
2013,05,03,04,04,6.50
2013,05,03,04,05,6.40
2013,05,03,04,06,6.40
2013,05,03,04,07,6.30
2013,05,03,04,08,6.30
2013,05,03,04,09,6.30
2013,05,03,04,10,6.40
2013,05,03,04,11,6.40
2013,05,03,04,12,6.40
2013,05,03,04,13,6.40
2013,05,03,04,14,6.40
2013,05,03,04,15,6.40
2013,05,03,04,16,6.50
2013,05,03,04,17,6.50
2013,05,03,04,18,6.50
2013,05,03,04,19,6.50
2013,05,03,04,20,6.50
2013,05,03,04,21,6.50
2013,05,03,04,22,6.40
2013,05,03,04,23,6.40
2013,05,03,04,24,6.40
2013,05,03,04,25,6.30
2013,05,03,04,26,6.30
2013,05,03,04,27,6.30
2013,05,03,04,28,6.30
2013,05,03,04,29,6.30
2013,05,03,04,30,6.30
2013,05,03,04,31,6.30
2013,05,03,04,32,6.30
2013,05,03,04,33,6.30
2013,05,03,04,34,6.30
2013,05,03,04,35,6.30
2013,05,03,04,36,6.30
2013,05,03,04,37,6.30
2013,05,03,04,38,6.30
2013,05,03,04,39,6.30
2013,05,03,04,40,6.30
2013,05,03,04,41,6.30
2013,05,03,04,42,6.20
2013,05,03,04,43,6.20
2013,05,03,04,44,6.20
2013,05,03,04,45,6.20
2013,05,03,04,46,6.20
2013,05,03,04,47,6.20
2013,05,03,04,48,6.10
2013,05,03,04,49,6.10
2013,05,03,04,50,6.10
2013,05,03,04,51,6.10
2013,05,03,04,52,6.10
2013,05,03,04,53,6.10
2013,05,03,04,54,6.10
2013,05,03,04,55,6.10
2013,05,03,04,56,6.10
2013,05,03,04,57,6.00
2013,05,03,04,58,6.00
2013,05,03,04,59,6.00
2013,05,03,05,00,6.00
2013,05,03,05,01,6.00
2013,05,03,05,02,6.00
2013,05,03,05,03,6.00
2013,05,03,05,04,6.00
2013,05,03,05,05,5.90
2013,05,03,05,06,5.90
2013,05,03,05,07,5.90
2013,05,03,05,08,5.90
2013,05,03,05,09,5.90
2013,05,03,05,10,5.90
2013,05,03,05,11,5.90
2013,05,03,05,12,5.90
2013,05,03,05,13,5.90
2013,05,03,05,14,5.90
2013,05,03,05,15,5.90
2013,05,03,05,16,5.80
2013,05,03,05,17,5.80
2013,05,03,05,18,5.80
2013,05,03,05,19,5.80
2013,05,03,05,20,5.80
2013,05,03,05,21,5.80
2013,05,03,05,22,5.70
2013,05,03,05,23,5.70
2013,05,03,05,24,5.60
2013,05,03,05,25,5.50
2013,05,03,05,26,5.40
2013,05,03,05,27,5.30
2013,05,03,05,28,5.30
2013,05,03,05,29,5.30
2013,05,03,05,30,5.40
2013,05,03,05,31,5.50
2013,05,03,05,32,5.60
2013,05,03,05,33,5.70
2013,05,03,05,34,5.70
2013,05,03,05,35,5.80
2013,05,03,05,36,5.90
2013,05,03,05,37,5.90
2013,05,03,05,38,6.00
2013,05,03,05,39,6.00
2013,05,03,05,40,6.00
2013,05,03,05,41,6.00
2013,05,03,05,42,6.00
2013,05,03,05,43,6.00
2013,05,03,05,44,6.10
2013,05,03,05,45,6.20
2013,05,03,05,46,6.30
2013,05,03,05,47,6.30
2013,05,03,05,48,6.30
2013,05,03,05,49,6.30
2013,05,03,05,50,6.20
2013,05,03,05,51,6.10
2013,05,03,05,52,5.90
2013,05,03,05,53,5.80
2013,05,03,05,54,5.70
2013,05,03,05,55,5.60
2013,05,03,05,56,5.50
2013,05,03,05,57,5.50
2013,05,03,05,58,5.40
2013,05,03,05,59,5.40
2013,05,03,06,00,5.40
2013,05,03,06,01,5.40
2013,05,03,06,02,5.40
2013,05,03,06,03,5.40
2013,05,03,06,04,5.40
2013,05,03,06,05,5.40
2013,05,03,06,06,5.40
2013,05,03,06,07,5.40
2013,05,03,06,08,5.40
2013,05,03,06,09,5.50
2013,05,03,06,10,5.50
2013,05,03,06,11,5.50
2013,05,03,06,12,5.60
2013,05,03,06,13,5.60
2013,05,03,06,14,5.70
2013,05,03,06,15,5.70
2013,05,03,06,16,5.80
2013,05,03,06,17,5.80
2013,05,03,06,18,5.80
2013,05,03,06,19,5.90
2013,05,03,06,20,6.00
2013,05,03,06,21,6.10
2013,05,03,06,22,6.10
2013,05,03,06,23,6.20
2013,05,03,06,24,6.20
2013,05,03,06,25,6.20
2013,05,03,06,26,6.30
2013,05,03,06,27,6.30
2013,05,03,06,28,6.30
2013,05,03,06,29,6.30
2013,05,03,06,30,6.40
2013,05,03,06,31,6.40
2013,05,03,06,32,6.40
2013,05,03,06,33,6.40
2013,05,03,06,34,6.40
2013,05,03,06,35,6.40
2013,05,03,06,36,6.50
2013,05,03,06,37,6.50
2013,05,03,06,38,6.50
2013,05,03,06,39,6.50
2013,05,03,06,40,6.50
2013,05,03,06,41,6.40
2013,05,03,06,42,6.40
2013,05,03,06,43,6.30
2013,05,03,06,44,6.30
2013,05,03,06,45,6.30
2013,05,03,06,46,6.30
2013,05,03,06,47,6.30
2013,05,03,06,48,6.30
2013,05,03,06,49,6.30
2013,05,03,06,50,6.30
2013,05,03,06,51,6.40
2013,05,03,06,52,6.40
2013,05,03,06,53,6.40
2013,05,03,06,54,6.40
2013,05,03,06,55,6.40
2013,05,03,06,56,6.50
2013,05,03,06,57,6.50
2013,05,03,06,58,6.60
2013,05,03,06,59,6.70
2013,05,03,07,00,6.70
2013,05,03,07,01,6.80
2013,05,03,07,02,6.90
2013,05,03,07,03,7.00
2013,05,03,07,04,7.00
2013,05,03,07,05,7.10
2013,05,03,07,06,7.10
2013,05,03,07,07,7.10
2013,05,03,07,08,7.10
2013,05,03,07,09,7.10
2013,05,03,07,10,7.10
2013,05,03,07,11,7.10
2013,05,03,07,12,7.10
2013,05,03,07,13,7.10
2013,05,03,07,14,7.00
2013,05,03,07,15,7.00
2013,05,03,07,16,7.00
2013,05,03,07,17,6.90
2013,05,03,07,18,6.90
2013,05,03,07,19,6.90
2013,05,03,07,20,6.90
2013,05,03,07,21,7.00
2013,05,03,07,22,7.00
2013,05,03,07,23,7.00
2013,05,03,07,24,7.10
2013,05,03,07,25,7.10
2013,05,03,07,26,7.20
2013,05,03,07,27,7.30
2013,05,03,07,28,7.30
2013,05,03,07,29,7.40
2013,05,03,07,30,7.50
2013,05,03,07,31,7.60
2013,05,03,07,32,7.60
2013,05,03,07,33,7.70
2013,05,03,07,34,7.80
2013,05,03,07,35,7.90
2013,05,03,07,36,8.00
2013,05,03,07,37,8.10
2013,05,03,07,38,8.20
2013,05,03,07,39,8.30
2013,05,03,07,40,8.40
2013,05,03,07,41,8.50
2013,05,03,07,42,8.70
2013,05,03,07,43,8.80
2013,05,03,07,44,8.90
2013,05,03,07,45,9.10
2013,05,03,07,46,9.20
2013,05,03,07,47,9.30
2013,05,03,07,48,9.40
2013,05,03,07,49,9.50
2013,05,03,07,50,9.60
2013,05,03,07,51,9.70
2013,05,03,07,52,9.70
2013,05,03,07,53,9.80
2013,05,03,07,54,9.90
2013,05,03,07,55,9.90
2013,05,03,07,56,10.00
2013,05,03,07,57,10.10
2013,05,03,07,58,10.10
2013,05,03,07,59,10.20
2013,05,03,08,00,10.20
2013,05,03,08,01,10.30
2013,05,03,08,02,10.30
2013,05,03,08,03,10.30
2013,05,03,08,04,10.40
2013,05,03,08,05,10.40
2013,05,03,08,06,10.50
2013,05,03,08,07,10.60
2013,05,03,08,08,10.70
2013,05,03,08,09,10.80
2013,05,03,08,10,10.90
2013,05,03,08,11,11.00
2013,05,03,08,12,11.20
2013,05,03,08,13,11.30
2013,05,03,08,14,11.40
2013,05,03,08,15,11.50
2013,05,03,08,16,11.60
2013,05,03,08,17,11.70
2013,05,03,08,18,11.80
2013,05,03,08,19,11.80
2013,05,03,08,20,11.90
2013,05,03,08,21,12.00
2013,05,03,08,22,12.10
2013,05,03,08,23,12.20
2013,05,03,08,24,12.30
2013,05,03,08,25,12.30
2013,05,03,08,26,12.40
2013,05,03,08,27,12.40
2013,05,03,08,28,12.50
2013,05,03,08,29,12.50
2013,05,03,08,30,12.60
2013,05,03,08,31,12.60
2013,05,03,08,32,12.70
2013,05,03,08,33,12.80
2013,05,03,08,34,12.90
2013,05,03,08,35,13.00
2013,05,03,08,36,13.10
2013,05,03,08,37,13.20
2013,05,03,08,38,13.30
2013,05,03,08,39,13.30
2013,05,03,08,40,13.40
2013,05,03,08,41,13.40
2013,05,03,08,42,13.50
2013,05,03,08,43,13.60
2013,05,03,08,44,13.60
2013,05,03,08,45,13.70
2013,05,03,08,46,13.70
2013,05,03,08,47,13.80
2013,05,03,08,48,13.80
2013,05,03,08,49,13.90
2013,05,03,08,50,13.90
2013,05,03,08,51,14.00
2013,05,03,08,52,14.10
2013,05,03,08,53,14.10
2013,05,03,08,54,14.10
2013,05,03,08,55,14.10
2013,05,03,08,56,14.10
2013,05,03,08,57,14.20
2013,05,03,08,58,14.20
2013,05,03,08,59,14.30
2013,05,03,09,00,14.30
2013,05,03,09,01,14.40
2013,05,03,09,02,14.40
2013,05,03,09,03,14.40
2013,05,03,09,04,14.40
2013,05,03,09,05,14.30
2013,05,03,09,06,14.20
2013,05,03,09,07,14.00
2013,05,03,09,08,13.90
2013,05,03,09,09,13.90
2013,05,03,09,10,13.90
2013,05,03,09,11,13.90
2013,05,03,09,12,14.00
2013,05,03,09,13,14.00
2013,05,03,09,14,14.00
2013,05,03,09,15,14.10
2013,05,03,09,16,14.20
2013,05,03,09,17,14.20
2013,05,03,09,18,14.30
2013,05,03,09,19,14.30
2013,05,03,09,20,14.30
2013,05,03,09,21,14.30
2013,05,03,09,22,14.40
2013,05,03,09,23,14.50
2013,05,03,09,24,14.60
2013,05,03,09,25,14.70
2013,05,03,09,26,14.70
2013,05,03,09,27,14.80
2013,05,03,09,28,14.80
2013,05,03,09,29,14.80
2013,05,03,09,30,14.90
2013,05,03,09,31,14.90
2013,05,03,09,32,15.00
2013,05,03,09,33,14.90
2013,05,03,09,34,14.90
2013,05,03,09,35,14.90
2013,05,03,09,36,14.90
2013,05,03,09,37,15.00
2013,05,03,09,38,15.10
2013,05,03,09,39,15.20
2013,05,03,09,40,15.30
2013,05,03,09,41,15.40
2013,05,03,09,42,15.40
2013,05,03,09,43,15.40
2013,05,03,09,44,15.40
2013,05,03,09,45,15.40
2013,05,03,09,46,15.50
2013,05,03,09,47,15.60
2013,05,03,09,48,15.60
2013,05,03,09,49,15.60
2013,05,03,09,50,15.50
2013,05,03,09,51,15.40
2013,05,03,09,52,15.20
2013,05,03,09,53,15.10
2013,05,03,09,54,15.00
2013,05,03,09,55,14.90
2013,05,03,09,56,15.00
2013,05,03,09,57,15.10
2013,05,03,09,58,15.10
2013,05,03,09,59,15.20
2013,05,03,10,00,15.20
2013,05,03,10,01,15.20
2013,05,03,10,02,15.20
2013,05,03,10,03,15.30
2013,05,03,10,04,15.30
2013,05,03,10,05,15.30
2013,05,03,10,06,15.30
2013,05,03,10,07,15.30
2013,05,03,10,08,15.30
2013,05,03,10,09,15.30
2013,05,03,10,10,15.30
2013,05,03,10,11,15.40
2013,05,03,10,12,15.50
2013,05,03,10,13,15.50
2013,05,03,10,14,15.60
2013,05,03,10,15,15.70
2013,05,03,10,16,15.80
2013,05,03,10,17,15.90
2013,05,03,10,18,15.90
2013,05,03,10,19,15.90
2013,05,03,10,20,15.80
2013,05,03,10,21,15.70
2013,05,03,10,22,15.60
2013,05,03,10,23,15.60
2013,05,03,10,24,15.70
2013,05,03,10,25,15.70
2013,05,03,10,26,15.80
2013,05,03,10,27,15.90
2013,05,03,10,28,15.90
2013,05,03,10,29,15.90
2013,05,03,10,30,15.90
2013,05,03,10,31,15.90
2013,05,03,10,32,15.90
2013,05,03,10,33,15.90
2013,05,03,10,34,15.90
2013,05,03,10,35,15.90
2013,05,03,10,36,15.90
2013,05,03,10,37,15.90
2013,05,03,10,38,15.90
2013,05,03,10,39,15.80
2013,05,03,10,40,15.80
2013,05,03,10,41,15.80
2013,05,03,10,42,15.80
2013,05,03,10,43,15.80
2013,05,03,10,44,15.80
2013,05,03,10,45,15.80
2013,05,03,10,46,15.80
2013,05,03,10,47,15.80
2013,05,03,10,48,15.90
2013,05,03,10,49,15.90
2013,05,03,10,50,16.00
2013,05,03,10,51,16.00
2013,05,03,10,52,16.00
2013,05,03,10,53,15.90
2013,05,03,10,54,15.90
2013,05,03,10,55,15.90
2013,05,03,10,56,15.90
2013,05,03,10,57,16.00
2013,05,03,10,58,16.00
2013,05,03,10,59,16.10
2013,05,03,11,00,16.20
2013,05,03,11,01,16.30
2013,05,03,11,02,16.30
2013,05,03,11,03,16.40
2013,05,03,11,04,16.40
2013,05,03,11,05,16.40
2013,05,03,11,06,16.50
2013,05,03,11,07,16.60
2013,05,03,11,08,16.70
2013,05,03,11,09,16.80
2013,05,03,11,10,16.90
2013,05,03,11,11,17.00
2013,05,03,11,12,17.10
2013,05,03,11,13,17.10
2013,05,03,11,14,17.10
2013,05,03,11,15,17.10
2013,05,03,11,16,17.10
2013,05,03,11,17,17.10
2013,05,03,11,18,17.20
2013,05,03,11,19,17.30
2013,05,03,11,20,17.30
2013,05,03,11,21,17.30
2013,05,03,11,22,17.30
2013,05,03,11,23,17.40
2013,05,03,11,24,17.50
2013,05,03,11,25,17.60
2013,05,03,11,26,17.70
2013,05,03,11,27,17.70
2013,05,03,11,28,17.80
2013,05,03,11,29,17.80
2013,05,03,11,30,17.80
2013,05,03,11,31,17.80
2013,05,03,11,32,17.90
2013,05,03,11,33,18.00
2013,05,03,11,34,18.10
2013,05,03,11,35,18.10
2013,05,03,11,36,18.20
2013,05,03,11,37,18.20
2013,05,03,11,38,18.10
2013,05,03,11,39,18.00
2013,05,03,11,40,17.90
2013,05,03,11,41,17.80
2013,05,03,11,42,17.80
2013,05,03,11,43,17.80
2013,05,03,11,44,17.80
2013,05,03,11,45,17.90
2013,05,03,11,46,18.00
2013,05,03,11,47,18.10
2013,05,03,11,48,18.10
2013,05,03,11,49,18.10
2013,05,03,11,50,18.00
2013,05,03,11,51,17.70
2013,05,03,11,52,17.40
2013,05,03,11,53,17.00
2013,05,03,11,54,16.70
2013,05,03,11,55,16.40
2013,05,03,11,56,16.20
2013,05,03,11,57,15.90
2013,05,03,11,58,15.70
2013,05,03,11,59,15.50
2013,05,03,12,00,15.40
2013,05,03,12,01,15.30
2013,05,03,12,02,15.30
2013,05,03,12,03,15.30
2013,05,03,12,04,15.30
2013,05,03,12,05,15.30
2013,05,03,12,06,15.40
2013,05,03,12,07,15.40
2013,05,03,12,08,15.40
2013,05,03,12,09,15.40
2013,05,03,12,10,15.30
2013,05,03,12,11,15.20
2013,05,03,12,12,15.30
2013,05,03,12,13,15.20
2013,05,03,12,14,15.20
2013,05,03,12,15,15.30
2013,05,03,12,16,15.30
2013,05,03,12,17,15.30
2013,05,03,12,18,15.30
2013,05,03,12,19,15.30
2013,05,03,12,20,15.40
2013,05,03,12,21,15.30
2013,05,03,12,22,15.30
2013,05,03,12,23,15.30
2013,05,03,12,24,15.40
2013,05,03,12,25,15.50
2013,05,03,12,26,15.60
2013,05,03,12,27,15.60
2013,05,03,12,28,15.70
2013,05,03,12,29,15.70
2013,05,03,12,30,15.90
2013,05,03,12,31,15.90
2013,05,03,12,32,15.80
2013,05,03,12,33,15.70
2013,05,03,12,34,15.70
2013,05,03,12,35,15.60
2013,05,03,12,36,15.50
2013,05,03,12,37,15.50
2013,05,03,12,38,15.50
2013,05,03,12,39,15.50
2013,05,03,12,40,15.50
2013,05,03,12,41,15.60
2013,05,03,12,42,15.70
2013,05,03,12,43,15.70
2013,05,03,12,44,15.80
2013,05,03,12,45,15.90
2013,05,03,12,46,15.90
2013,05,03,12,47,16.00
2013,05,03,12,48,16.10
2013,05,03,12,49,16.30
2013,05,03,12,50,16.30
2013,05,03,12,51,16.20
2013,05,03,12,52,16.30
2013,05,03,12,53,16.30
2013,05,03,12,54,16.40
2013,05,03,12,55,16.50
2013,05,03,12,56,16.40
2013,05,03,12,57,16.40
2013,05,03,12,58,16.30
2013,05,03,12,59,16.30
2013,05,03,13,00,16.30
2013,05,03,13,01,16.30
2013,05,03,13,02,16.20
2013,05,03,13,03,16.10
2013,05,03,13,04,16.00
2013,05,03,13,05,16.00
2013,05,03,13,06,16.00
2013,05,03,13,07,16.10
2013,05,03,13,08,16.00
2013,05,03,13,09,15.90
2013,05,03,13,10,15.90
2013,05,03,13,11,15.80
2013,05,03,13,12,15.80
2013,05,03,13,13,15.80
2013,05,03,13,14,15.80
2013,05,03,13,15,15.90
2013,05,03,13,16,16.00
2013,05,03,13,17,16.20
2013,05,03,13,18,16.30
2013,05,03,13,19,16.40
2013,05,03,13,20,16.50
2013,05,03,13,21,16.60
2013,05,03,13,22,16.80
2013,05,03,13,23,17.00
2013,05,03,13,24,17.20
2013,05,03,13,25,17.50
2013,05,03,13,26,17.70
2013,05,03,13,27,17.90
2013,05,03,13,28,18.00
2013,05,03,13,29,18.20
2013,05,03,13,30,18.40
2013,05,03,13,31,18.50
2013,05,03,13,32,18.60
2013,05,03,13,33,18.60
2013,05,03,13,34,18.70
2013,05,03,13,35,18.70
2013,05,03,13,36,18.80
2013,05,03,13,37,18.80
2013,05,03,13,38,18.80
2013,05,03,13,39,18.80
2013,05,03,13,40,18.80
2013,05,03,13,41,18.90
2013,05,03,13,42,18.90
2013,05,03,13,43,19.00
2013,05,03,13,44,19.10
2013,05,03,13,45,19.10
2013,05,03,13,46,19.10
2013,05,03,13,47,18.90
2013,05,03,13,48,18.70
2013,05,03,13,49,18.60
2013,05,03,13,50,18.50
2013,05,03,13,51,18.50
2013,05,03,13,52,18.50
2013,05,03,13,53,18.70
2013,05,03,13,54,18.70
2013,05,03,13,55,18.90
2013,05,03,13,56,19.00
2013,05,03,13,57,19.10
2013,05,03,13,58,19.20
2013,05,03,13,59,19.20
2013,05,03,14,00,19.20
2013,05,03,14,01,19.20
2013,05,03,14,02,19.20
2013,05,03,14,03,19.20
2013,05,03,14,04,19.20
2013,05,03,14,05,19.20
2013,05,03,14,06,19.30
2013,05,03,14,07,19.30
2013,05,03,14,08,19.40
2013,05,03,14,09,19.40
2013,05,03,14,10,19.40
2013,05,03,14,11,19.50
2013,05,03,14,12,19.50
2013,05,03,14,13,19.60
2013,05,03,14,14,19.60
2013,05,03,14,15,19.60
2013,05,03,14,16,19.50
2013,05,03,14,17,19.60
2013,05,03,14,18,19.60
2013,05,03,14,19,19.70
2013,05,03,14,20,19.70
2013,05,03,14,21,19.70
2013,05,03,14,22,19.80
2013,05,03,14,23,19.80
2013,05,03,14,24,19.80
2013,05,03,14,25,19.90
2013,05,03,14,26,19.90
2013,05,03,14,27,20.00
2013,05,03,14,28,20.10
2013,05,03,14,29,20.20
2013,05,03,14,30,20.30
2013,05,03,14,31,20.30
2013,05,03,14,32,20.40
2013,05,03,14,33,20.40
2013,05,03,14,34,20.50
2013,05,03,14,35,20.60
2013,05,03,14,36,20.60
2013,05,03,14,37,20.60
2013,05,03,14,38,20.60
2013,05,03,14,39,20.70
2013,05,03,14,40,20.70
2013,05,03,14,41,20.70
2013,05,03,14,42,20.70
2013,05,03,14,43,20.70
2013,05,03,14,44,20.80
2013,05,03,14,45,20.80
2013,05,03,14,46,20.90
2013,05,03,14,47,21.00
2013,05,03,14,48,21.10
2013,05,03,14,49,21.10
2013,05,03,14,50,21.20
2013,05,03,14,51,21.10
2013,05,03,14,52,21.10
2013,05,03,14,53,21.00
2013,05,03,14,54,21.00
2013,05,03,14,55,21.00
2013,05,03,14,56,21.00
2013,05,03,14,57,21.00
2013,05,03,14,58,21.00
2013,05,03,14,59,21.00
2013,05,03,15,00,21.00
2013,05,03,15,01,21.10
2013,05,03,15,02,21.10
2013,05,03,15,03,21.20
2013,05,03,15,04,21.20
2013,05,03,15,05,21.30
2013,05,03,15,06,21.30
2013,05,03,15,07,21.40
2013,05,03,15,08,21.40
2013,05,03,15,09,21.50
2013,05,03,15,10,21.40
2013,05,03,15,11,21.40
2013,05,03,15,12,21.40
2013,05,03,15,13,21.40
2013,05,03,15,14,21.30
2013,05,03,15,15,21.30
2013,05,03,15,16,21.30
2013,05,03,15,17,21.40
2013,05,03,15,18,21.40
2013,05,03,15,19,21.40
2013,05,03,15,20,21.40
2013,05,03,15,21,21.30
2013,05,03,15,22,21.30
2013,05,03,15,23,21.30
2013,05,03,15,24,21.40
2013,05,03,15,25,21.40
2013,05,03,15,26,21.50
2013,05,03,15,27,21.50
2013,05,03,15,28,21.60
2013,05,03,15,29,21.60
2013,05,03,15,30,21.70
2013,05,03,15,31,21.70
2013,05,03,15,32,21.80
2013,05,03,15,33,21.80
2013,05,03,15,34,21.90
2013,05,03,15,35,22.00
2013,05,03,15,36,22.10
2013,05,03,15,37,22.20
2013,05,03,15,38,22.30
2013,05,03,15,39,22.30
2013,05,03,15,40,22.30
2013,05,03,15,41,22.30
2013,05,03,15,42,22.30
2013,05,03,15,43,22.30
2013,05,03,15,44,22.40
2013,05,03,15,45,22.30
2013,05,03,15,46,22.30
2013,05,03,15,47,22.20
2013,05,03,15,48,22.10
2013,05,03,15,49,22.10
2013,05,03,15,50,22.10
2013,05,03,15,51,22.10
2013,05,03,15,52,22.20
2013,05,03,15,53,22.20
2013,05,03,15,54,22.20
2013,05,03,15,55,22.30
2013,05,03,15,56,22.50
2013,05,03,15,57,22.60
2013,05,03,15,58,22.60
2013,05,03,15,59,22.70
2013,05,03,16,00,22.70
2013,05,03,16,01,22.80
2013,05,03,16,02,22.70
2013,05,03,16,03,22.70
2013,05,03,16,04,22.70
2013,05,03,16,05,22.70
2013,05,03,16,06,22.70
2013,05,03,16,07,22.70
2013,05,03,16,08,22.60
2013,05,03,16,09,22.50
2013,05,03,16,10,22.40
2013,05,03,16,11,22.30
2013,05,03,16,12,22.30
2013,05,03,16,13,22.20
2013,05,03,16,14,22.10
2013,05,03,16,15,22.10
2013,05,03,16,16,22.00
2013,05,03,16,17,22.00
2013,05,03,16,18,21.90
2013,05,03,16,19,21.90
2013,05,03,16,20,21.80
2013,05,03,16,21,21.80
2013,05,03,16,22,21.70
2013,05,03,16,23,21.70
2013,05,03,16,24,21.70
2013,05,03,16,25,21.70
2013,05,03,16,26,21.80
2013,05,03,16,27,21.80
2013,05,03,16,28,21.80
2013,05,03,16,29,21.70
2013,05,03,16,30,21.60
2013,05,03,16,31,21.50
2013,05,03,16,32,21.30
2013,05,03,16,33,21.20
2013,05,03,16,34,21.00
2013,05,03,16,35,21.00
2013,05,03,16,36,20.90
2013,05,03,16,37,20.80
2013,05,03,16,38,20.30
2013,05,03,16,39,19.90
2013,05,03,16,40,19.70
2013,05,03,16,41,19.50
2013,05,03,16,42,19.40
2013,05,03,16,43,19.50
2013,05,03,16,44,19.50
2013,05,03,16,45,19.60
2013,05,03,16,46,19.70
2013,05,03,16,47,19.80
2013,05,03,16,48,20.00
2013,05,03,16,49,20.10
2013,05,03,16,50,20.30
2013,05,03,16,51,20.60
2013,05,03,16,52,20.80
2013,05,03,16,53,21.00
2013,05,03,16,54,21.20
2013,05,03,16,55,21.30
2013,05,03,16,56,21.50
2013,05,03,16,57,21.50
2013,05,03,16,58,21.60
2013,05,03,16,59,21.70
2013,05,03,17,00,21.70
2013,05,03,17,01,21.80
2013,05,03,17,02,21.80
2013,05,03,17,03,21.90
2013,05,03,17,04,22.00
2013,05,03,17,05,22.10
2013,05,03,17,06,22.10
2013,05,03,17,07,22.10
2013,05,03,17,08,22.10
2013,05,03,17,09,22.10
2013,05,03,17,10,22.10
2013,05,03,17,11,22.10
2013,05,03,17,12,22.20
2013,05,03,17,13,22.20
2013,05,03,17,14,22.20
2013,05,03,17,15,22.20
2013,05,03,17,16,22.20
2013,05,03,17,17,22.20
2013,05,03,17,18,22.10
2013,05,03,17,19,22.00
2013,05,03,17,20,21.80
2013,05,03,17,21,21.70
2013,05,03,17,22,21.50
2013,05,03,17,23,21.20
2013,05,03,17,24,21.00
2013,05,03,17,25,20.90
2013,05,03,17,26,20.80
2013,05,03,17,27,20.60
2013,05,03,17,28,20.30
2013,05,03,17,29,20.10
2013,05,03,17,30,19.90
2013,05,03,17,31,19.80
2013,05,03,17,32,19.80
2013,05,03,17,33,19.60
2013,05,03,17,34,19.50
2013,05,03,17,35,19.30
2013,05,03,17,36,19.20
2013,05,03,17,37,19.10
2013,05,03,17,38,19.10
2013,05,03,17,39,19.10
2013,05,03,17,40,19.10